#timestamp,LO_Frequency,Hit,StdDev 
1505984415.2,286046999.2,N
1505984435.9,286047000.9,N
1505984455.7,286047000.6,N
1505984475.6,286047001.8,N
1505984495.4,286047000.3,N
1505984515.2,286046998.4,N
1505984535.0,286047002.0,N
1505984535.9,286047002.0,N
1505984555.8,286047001.6,N
1505984575.6,286047001.1,N
1505984595.2,286046998.5,N
1505984615.9,286046997.9,N
1505984635.7,286046993.3,N
1505984655.6,286046991.9,Y
1505984675.4,286046995.9,P
1505984695.2,286046994.3,P
1505984715.1,286046990.7,P
1505984716.0,286046990.7,Y
1505984735.8,286047002.1,P
1505984755.6,286047002.1,N
1505984775.5,286047000.7,N
1505984795.3,286046997.3,N
1505984815.1,286046997.4,N
1505984835.9,286046996.6,N
1505984855.7,286047001.2,N
1505984875.5,286046998.6,N
1505984895.4,286046999.4,N
1505984915.2,286047001.1,N
1505984935.0,286047002.2,N
1505984935.9,286047002.2,N
1505984955.7,286047003.5,N
1505984975.6,286047003.0,N
1505984995.4,286047006.0,N
1505985015.2,286047004.4,N
1505985035.1,286047000.0,N
1505985036.0,286047000.0,N
1505985055.8,286047002.4,N
1505985075.6,286046999.0,N
1505985095.5,286046999.1,N
1505985115.3,286046998.3,N
1505985135.1,286047000.0,N
1505985155.9,286046998.6,N
1505985175.7,286046998.3,N
1505985195.5,286046994.2,N
1505985215.4,286046993.6,N
1505985235.2,286046996.8,N
1505985255.0,286046997.1,N
1505985255.9,286046997.1,N
1505985275.8,286046998.5,N
1505985295.6,286047001.4,N
1505985315.4,286046999.7,N
1505985335.3,286046998.0,N
1505985355.1,286046993.3,N
1505985356.0,286046993.3,N
1505985375.8,286046993.4,N
1505985395.7,286046996.3,N
1505985415.5,286047000.3,N
1505985435.3,286047000.1,N
1505985455.2,286047000.4,N
1505985475.9,286046997.1,N
1505985495.7,286046997.8,N
1505985515.5,286046997.7,N
1505985535.4,286046999.3,N
1505985555.2,286047001.0,N
1505985575.0,286047000.9,N
1505985575.9,286047000.9,N
1505985595.8,286047002.5,N
1505985615.6,286046995.5,N
1505985635.4,286046998.0,N
1505985655.3,286046994.3,N
1505985675.1,286046997.5,N
1505985695.8,286046997.8,N
1505985715.7,286046996.0,N
1505985735.5,286047002.8,N
1505985755.3,286046999.9,N
1505985775.2,286046997.1,N
1505985795.9,286046995.0,N
1505985815.7,286046999.3,N
1505985835.6,286046997.5,N
1505985855.4,286046995.9,N
1505985875.2,286046995.0,N
1505985895.0,286046995.7,N
1505985896.0,286046995.7,N
1505985915.8,286046991.8,Y
1505985935.6,286046996.0,P
1505985955.5,286046992.5,P
1505985975.3,286046995.1,N
1505985995.1,286046997.9,N
1505986015.8,286046995.4,N
1505986035.7,286046993.9,Y
1505986055.5,286046999.1,P
1505986075.4,286047000.7,N
1505986095.2,286046997.7,N
1505986115.0,286046998.5,N
1505986115.9,286046998.5,N
1505986135.7,286047002.4,N
1505986155.6,286047006.0,Y
1505986175.4,286047003.0,P
1505986195.2,286047004.5,N
1505986215.1,286047005.5,N
1505986216.0,286047005.5,N
1505986235.8,286047007.1,N
1505986255.7,286047009.0,Y
1505986275.5,286047004.0,P
1505986295.3,286047002.3,P
1505986315.1,286047001.9,N
1505986335.9,286047004.4,Y
1505986355.7,286047000.5,P
1505986375.5,286047000.6,N
1505986395.4,286047000.5,N
1505986415.2,286046998.5,N
1505986435.0,286046999.1,N
1505986435.9,286046999.1,N
1505986455.8,286047000.9,N
1505986475.6,286046999.3,N
1505986495.4,286046997.7,N
1505986515.3,286046998.2,N
1505986535.1,286046999.2,N
1505986555.8,286046999.9,N
1505986575.7,286047001.7,N
1505986595.5,286047005.6,Y
1505986615.3,286047000.4,P
1505986635.2,286046999.3,N
1505986655.9,286047001.4,P
1505986675.7,286046999.1,N
1505986695.6,286047002.7,Y
1505986715.4,286046998.8,P
1505986735.2,286047001.1,N
1505986755.1,286047000.4,N
1505986756.0,286047000.4,N
1505986775.8,286047000.9,N
1505986795.6,286047000.1,N
1505986815.5,286047001.4,N
1505986835.3,286046999.9,N
1505986855.1,286047004.3,Y
1505986875.9,286046998.6,P
1505986895.7,286047002.6,N
1505986915.5,286047004.4,N
1505986935.3,286047005.9,N
1505986955.2,286047004.3,N
1505986975.0,286047002.0,N
1505986975.9,286047002.0,N
1505986995.7,286047003.5,N
1505987015.6,286047001.0,N
1505987035.4,286046998.3,N
1505987055.2,286047000.5,N
1505987075.1,286047000.7,N
1505987076.0,286047000.7,N
1505987095.8,286047000.1,N
1505987115.6,286047000.7,N
1505987135.5,286046996.9,N
1505987155.3,286046999.1,N
1505987175.1,286046998.7,N
1505987195.9,286046995.6,N
1505987215.7,286046995.1,N
1505987235.5,286046999.6,N
1505987255.3,286046995.8,N
1505987275.2,286046994.1,N
1505987295.0,286046993.7,N
1505987295.9,286046993.7,N
1505987315.7,286046997.1,N
1505987335.6,286046995.7,N
1505987355.4,286046996.0,N
1505987375.2,286046998.5,N
1505987395.1,286046999.5,N
1505987396.0,286046999.5,N
1505987415.8,286046997.4,N
1505987435.6,286046996.2,N
1505987455.5,286046995.3,N
1505987475.3,286046993.5,N
1505987495.1,286046995.5,N
1505987515.9,286046995.0,N
1505987535.7,286046996.8,N
1505987555.5,286046994.9,N
1505987575.3,286046995.6,N
1505987595.2,286046997.1,N
1505987615.0,286046997.7,N
1505987615.9,286046997.7,N
1505987635.7,286046999.4,N
1505987655.6,286047002.7,N
1505987675.4,286046996.5,N
1505987695.2,286047001.2,N
1505987715.1,286047000.6,N
1505987716.0,286047000.6,N
1505987735.8,286047003.8,N
1505987755.6,286047001.5,N
1505987775.5,286046999.3,N
1505987795.3,286047000.5,N
1505987815.1,286047002.3,N
1505987835.9,286047001.4,N
1505987855.7,286047001.3,N
1505987875.5,286047002.3,N
1505987895.4,286047004.3,N
1505987915.2,286046996.9,N
1505987935.0,286046997.1,N
1505987935.9,286046997.1,N
1505987955.7,286046998.5,N
1505987975.6,286046994.9,N
1505987995.4,286046998.1,N
